| time (UTC) | temp F | wind direction | speed knots | gust knots | rain 1hr in | rain 24hr in | rain mn in | humidity % | barometer mb |
| 20260902123327 | 92 | 206 | 2.6 | 6.1 | 0.00 | 0.02 | 0.02 | 47 | 1015.1 |
| 20260902123044 | 92 | 198 | 1.7 | 5.2 | 0.00 | 0.02 | 0.02 | 45 | 1015.3 |
| 20260902122315 | 92 | 278 | 2.6 | 5.2 | 0.00 | 0.02 | 0.02 | 50 | 1015.4 |
| 20260902121808 | 91 | 222 | 3.5 | 6.1 | 0.00 | 0.02 | 0.02 | 51 | 1015.5 |
| 20260902121302 | 91 | 244 | 2.6 | 6.1 | 0.00 | 0.02 | 0.02 | 52 | 1015.5 |
| 20260902120757 | 92 | 266 | 2.6 | 5.2 | 0.00 | 0.02 | 0.02 | 52 | 1015.6 |
| 20260902120250 | 91 | 243 | 2.6 | 6.1 | 0.00 | 0.02 | 0.02 | 52 | 1015.7 |
| 20260902115745 | 91 | 254 | 2.6 | 7.0 | 0.00 | 0.02 | 0.02 | 50 | 1015.8 |
| 20260902115239 | 91 | 140 | 2.6 | 7.8 | 0.00 | 0.02 | 0.02 | 53 | 1015.8 |
| 20260902114732 | 90 | 221 | 2.6 | 7.0 | 0.00 | 0.02 | 0.02 | 54 | 1015.9 |
| 20260902114446 | 90 | 254 | 3.5 | 7.8 | 0.00 | 0.02 | 0.02 | 55 | 1016.1 |
| 20260902113721 | 89 | 271 | 4.3 | 8.7 | 0.00 | 0.02 | 0.02 | 57 | 1016.1 |
| 20260902113214 | 88 | 202 | 4.3 | 8.7 | 0.00 | 0.02 | 0.02 | 59 | 1016.2 |
| 20260902112931 | 89 | 258 | 3.5 | 8.7 | 0.00 | 0.02 | 0.02 | 58 | 1016.3 |
| 20260902112203 | 89 | 252 | 3.5 | 8.7 | 0.00 | 0.02 | 0.02 | 59 | 1016.3 |
| 20260902111656 | 88 | 274 | 3.5 | 7.8 | 0.00 | 0.02 | 0.02 | 61 | 1016.4 |
| 20260902111150 | 88 | 255 | 3.5 | 7.8 | 0.00 | 0.02 | 0.02 | 60 | 1016.4 |
| 20260902110912 | 88 | 221 | 4.3 | 8.7 | 0.00 | 0.02 | 0.02 | 58 | 1016.4 |
| 20260902110139 | 88 | 233 | 4.3 | 8.7 | 0.00 | 0.02 | 0.02 | 59 | 1016.5 |
| 20260902105852 | 88 | 256 | 3.5 | 7.8 | 0.00 | 0.02 | 0.02 | 57 | 1016.6 |
| 20260902105126 | 89 | 270 | 3.5 | 7.8 | 0.00 | 0.02 | 0.02 | 56 | 1016.7 |
| 20260902104620 | 88 | 222 | 4.3 | 8.7 | 0.00 | 0.02 | 0.02 | 55 | 1016.6 |
| 20260902104119 | 88 | 240 | 3.5 | 8.7 | 0.00 | 0.02 | 0.02 | 54 | 1016.7 |
| 20260902103619 | 89 | 236 | 2.6 | 7.8 | 0.00 | 0.02 | 0.02 | 53 | 1016.6 |
| 20260902103117 | 89 | 253 | 2.6 | 7.8 | 0.00 | 0.02 | 0.02 | 53 | 1016.7 |
| 20260902102619 | 89 | 236 | 3.5 | 7.8 | 0.00 | 0.02 | 0.02 | 57 | 1016.7 |
| 20260902102117 | 89 | 105 | 2.6 | 7.0 | 0.00 | 0.02 | 0.02 | 58 | 1016.7 |
| 20260902101615 | 89 | 219 | 2.6 | 6.1 | 0.00 | 0.02 | 0.02 | 58 | 1016.9 |
| 20260902101115 | 88 | 240 | 3.5 | 6.1 | 0.00 | 0.02 | 0.02 | 59 | 1016.9 |
| 20260902100616 | 88 | 247 | 3.5 | 6.1 | 0.00 | 0.02 | 0.02 | 59 | 1016.9 |
| 20260902100114 | 87 | 236 | 3.5 | 6.1 | 0.00 | 0.02 | 0.02 | 59 | 1016.9 |
| 20260902095615 | 87 | 261 | 2.6 | 6.1 | 0.00 | 0.02 | 0.02 | 61 | 1017.0 |
| 20260902095333 | 88 | 280 | 1.7 | 5.2 | 0.00 | 0.02 | 0.02 | 60 | 1016.9 |
| 20260902094616 | 88 | 212 | 1.7 | 4.3 | 0.00 | 0.02 | 0.02 | 60 | 1017.0 |
| 20260902094113 | 88 | 213 | 1.7 | 4.3 | 0.00 | 0.02 | 0.02 | 60 | 1017.1 |
| 20260902093613 | 88 | 195 | 1.7 | 3.5 | 0.00 | 0.02 | 0.02 | 61 | 1017.2 |
| 20260902093114 | 88 | 210 | 1.7 | 3.5 | 0.00 | 0.02 | 0.02 | 61 | 1017.2 |
| 20260902092612 | 88 | 226 | 1.7 | 4.3 | 0.00 | 0.02 | 0.02 | 61 | 1017.2 |
| 20260902092112 | 87 | 225 | 2.6 | 4.3 | 0.00 | 0.02 | 0.02 | 63 | 1017.3 |
| 20260902091612 | 87 | 207 | 1.7 | 4.3 | 0.00 | 0.02 | 0.02 | 62 | 1017.3 |
| 20260902091106 | 88 | 150 | 1.7 | 3.5 | 0.00 | 0.02 | 0.02 | 62 | 1017.4 |
| 20260902090600 | 87 | 212 | 0.9 | 3.5 | 0.00 | 0.02 | 0.02 | 61 | 1017.3 |
| 20260902090054 | 87 | 217 | 0.9 | 2.6 | 0.00 | 0.02 | 0.02 | 62 | 1017.3 |
| 20260902085548 | 86 | 301 | 1.7 | 2.6 | 0.00 | 0.02 | 0.02 | 63 | 1017.3 |
| 20260902085042 | 86 | 266 | 1.7 | 3.5 | 0.00 | 0.02 | 0.02 | 62 | 1017.3 |
| 20260902084536 | 86 | 272 | 1.7 | 3.5 | 0.00 | 0.02 | 0.02 | 62 | 1017.4 |
| 20260902084030 | 85 | 235 | 0.9 | 3.5 | 0.00 | 0.02 | 0.02 | 64 | 1017.3 |
| 20260902083529 | 86 | 248 | 0.9 | 3.5 | 0.00 | 0.02 | 0.02 | 62 | 1017.3 |
| 20260902083027 | 86 | 217 | 0.9 | 3.5 | 0.00 | 0.02 | 0.02 | 63 | 1017.3 |
| 20260902082525 | 85 | 105 | 0.9 | 3.5 | 0.00 | 0.02 | 0.02 | 66 | 1017.4 |
| 20260902082025 | 85 | 210 | 1.7 | 3.5 | 0.00 | 0.02 | 0.02 | 66 | 1017.4 |
| 20260902081525 | 85 | 194 | 1.7 | 4.3 | 0.00 | 0.02 | 0.02 | 66 | 1017.3 |
| 20260902081025 | 84 | 162 | 1.7 | 4.3 | 0.00 | 0.02 | 0.02 | 67 | 1017.3 |
| 20260902080524 | 84 | 192 | 2.6 | 5.2 | 0.00 | 0.02 | 0.02 | 68 | 1017.3 |
| 20260902080025 | 83 | 250 | 2.6 | 5.2 | 0.00 | 0.02 | 0.02 | 68 | 1017.3 |
| 20260902075524 | 83 | 256 | 1.7 | 4.3 | 0.00 | 0.02 | 0.02 | 68 | 1017.3 |
| 20260902075024 | 83 | 249 | 1.7 | 3.5 | 0.00 | 0.02 | 0.02 | 69 | 1017.4 |
| 20260902074525 | 83 | 275 | 1.7 | 3.5 | 0.00 | 0.02 | 0.02 | 69 | 1017.4 |
| 20260902074025 | 83 | 273 | 1.7 | 3.5 | 0.00 | 0.02 | 0.02 | 69 | 1017.4 |
| 20260902073526 | 82 | 286 | 1.7 | 3.5 | 0.00 | 0.02 | 0.02 | 69 | 1017.3 |
| 20260902073025 | 82 | 288 | 1.7 | 2.6 | 0.00 | 0.02 | 0.02 | 69 | 1017.3 |
| 20260902072525 | 82 | 305 | 1.7 | 4.3 | 0.00 | 0.02 | 0.02 | 70 | 1017.2 |
| 20260902072023 | 82 | 274 | 1.7 | 4.3 | 0.00 | 0.02 | 0.02 | 70 | 1017.1 |
| 20260902071521 | 82 | 277 | 0.9 | 3.5 | 0.00 | 0.02 | 0.02 | 71 | 1017.2 |
| 20260902071017 | 81 | 242 | 0.9 | 2.6 | 0.00 | 0.02 | 0.02 | 74 | 1017.1 |
| 20260902070517 | 81 | 266 | 0.9 | 2.6 | 0.00 | 0.02 | 0.02 | 74 | 1017.2 |
| 20260902070017 | 80 | 285 | 0.9 | 2.6 | 0.00 | 0.02 | 0.02 | 76 | 1017.2 |
| 20260902065516 | 80 | 295 | 0.9 | 3.5 | 0.00 | 0.02 | 0.02 | 78 | 1017.2 |
| 20260902065017 | 80 | 309 | 0.9 | 3.5 | 0.00 | 0.02 | 0.02 | 77 | 1017.2 |
| 20260902064517 | 80 | 264 | 0.9 | 3.5 | 0.00 | 0.02 | 0.02 | 77 | 1017.2 |
| 20260902064237 | 80 | 299 | 1.7 | 3.5 | 0.00 | 0.02 | 0.02 | 78 | 1017.1 |
| 20260902063517 | 80 | 288 | 1.7 | 3.5 | 0.00 | 0.02 | 0.02 | 79 | 1017.1 |
| 20260902063017 | 80 | 308 | 1.7 | 3.5 | 0.00 | 0.02 | 0.02 | 79 | 1017.1 |
| 20260902062513 | 80 | 271 | 1.7 | 3.5 | 0.00 | 0.02 | 0.02 | 78 | 1017.1 |
| 20260902062013 | 80 | 276 | 0.9 | 3.5 | 0.00 | 0.02 | 0.02 | 77 | 1017.2 |
| 20260902061737 | 80 | 228 | 0.9 | 2.6 | 0.00 | 0.02 | 0.02 | 78 | 1017.2 |
| 20260902061236 | 80 | 228 | 0.9 | 2.6 | 0.00 | 0.02 | 0.02 | 78 | 1017.1 |
| 20260902060513 | 79 | 243 | 2.6 | 4.3 | 0.00 | 0.02 | 0.02 | 79 | 1017.1 |
| 20260902060012 | 78 | 247 | 2.6 | 4.3 | 0.00 | 0.02 | 0.02 | 80 | 1017.1 |
| 20260902055512 | 78 | 210 | 2.6 | 4.3 | 0.00 | 0.02 | 0.02 | 80 | 1017.1 |
| 20260902055012 | 78 | 248 | 2.6 | 4.3 | 0.00 | 0.02 | 0.02 | 81 | 1017.1 |
| 20260902054738 | 78 | 270 | 1.7 | 4.3 | 0.00 | 0.02 | 0.02 | 81 | 1017.1 |
| 20260902054006 | 78 | 255 | 1.7 | 3.5 | 0.00 | 0.02 | 0.02 | 81 | 1017.1 |
| 20260902053459 | 78 | 258 | 1.7 | 5.2 | 0.00 | 0.02 | 0.02 | 81 | 1017.1 |
| 20260902052954 | 79 | 276 | 1.7 | 5.2 | 0.00 | 0.02 | 0.02 | 80 | 1017.1 |
| 20260902052448 | 79 | 233 | 0.0 | 2.6 | 0.00 | 0.02 | 0.02 | 78 | 1017.2 |
| 20260902052205 | 79 | 4 | 0.0 | 0.9 | 0.00 | 0.02 | 0.02 | 78 | 1017.2 |
| 20260902051434 | 79 | 3 | 0.0 | 1.7 | 0.00 | 0.02 | 0.02 | 79 | 1017.1 |
| 20260902050932 | 78 | 1 | 0.9 | 1.7 | 0.00 | 0.02 | 0.02 | 80 | 1017.0 |
| 20260902050914 | 78 | 324 | 0.0 | 0.9 | 0.00 | 0.02 | 0.02 | 81 | 1016.9 |
| 20260902045932 | 78 | 262 | 0.0 | 0.9 | 0.00 | 0.02 | 0.02 | 81 | 1017.0 |
| 20260902045429 | 78 | 262 | 0.9 | 1.7 | 0.00 | 0.02 | 0.02 | 81 | 1017.0 |
| 20260902044929 | 78 | 262 | 0.9 | 1.7 | 0.00 | 0.02 | 0.02 | 81 | 1017.0 |
| 20260902044428 | 78 | 259 | 0.9 | 1.7 | 0.00 | 0.02 | 0.02 | 82 | 1016.9 |
| 20260902043927 | 77 | 267 | 1.7 | 2.6 | 0.00 | 0.02 | 0.02 | 83 | 1016.9 |
| 20260902043428 | 77 | 253 | 1.7 | 3.5 | 0.00 | 0.02 | 0.02 | 83 | 1016.9 |
| 20260902042926 | 77 | 271 | 1.7 | 3.5 | 0.00 | 0.02 | 0.02 | 83 | 1016.7 |
| 20260902042424 | 77 | 264 | 1.7 | 3.5 | 0.00 | 0.02 | 0.02 | 83 | 1016.6 |
| 20260902041923 | 77 | 291 | 2.6 | 4.3 | 0.00 | 0.02 | 0.02 | 84 | 1016.7 |
| 20260902041423 | 77 | 229 | 1.7 | 5.2 | 0.00 | 0.02 | 0.02 | 84 | 1016.7 |
| 20260902040922 | 77 | 306 | 0.9 | 5.2 | 0.00 | 0.02 | 0.02 | 84 | 1016.6 |
| 20260902040420 | 76 | 98 | 0.0 | 1.7 | 0.00 | 0.02 | 0.02 | 83 | 1016.6 |
| 20260902035918 | 76 | 98 | 0.0 | 0.9 | 0.00 | 0.02 | 0.02 | 84 | 1016.6 |
| 20260902035418 | 77 | 98 | 0.9 | 1.7 | 0.00 | 0.02 | 0.02 | 83 | 1016.5 |
| 20260902034918 | 77 | 98 | 0.9 | 1.7 | 0.00 | 0.02 | 0.02 | 83 | 1016.5 |
| 20260902034419 | 77 | 98 | 0.9 | 1.7 | 0.00 | 0.02 | 0.02 | 82 | 1016.5 |
| 20260902033913 | 77 | 98 | 1.7 | 2.6 | 0.00 | 0.02 | 0.02 | 82 | 1016.4 |
| 20260902033407 | 77 | 108 | 0.9 | 2.6 | 0.00 | 0.02 | 0.02 | 81 | 1016.4 |
| 20260902032901 | 77 | 98 | 0.9 | 1.7 | 0.00 | 0.02 | 0.02 | 81 | 1016.4 |
| 20260902032355 | 78 | 100 | 0.9 | 1.7 | 0.00 | 0.02 | 0.02 | 80 | 1016.4 |
| 20260902031849 | 78 | 102 | 0.9 | 1.7 | 0.00 | 0.02 | 0.02 | 79 | 1016.3 |
| 20260902031343 | 78 | 86 | 0.9 | 1.7 | 0.00 | 0.02 | 0.02 | 77 | 1016.3 |
| 20260902030837 | 78 | 86 | 0.9 | 1.7 | 0.00 | 0.02 | 0.02 | 75 | 1016.3 |
| 20260902030331 | 78 | 81 | 0.9 | 2.6 | 0.00 | 0.02 | 0.02 | 76 | 1016.3 |
| 20260902025825 | 77 | 81 | 1.7 | 3.5 | 0.00 | 0.02 | 0.02 | 77 | 1016.3 |
| 20260902025320 | 78 | 75 | 1.7 | 3.5 | 0.00 | 0.02 | 0.02 | 77 | 1016.3 |
| 20260902024813 | 78 | 21 | 0.9 | 2.6 | 0.00 | 0.02 | 0.02 | 77 | 1016.3 |
| 20260902024307 | 78 | 144 | 0.9 | 4.3 | 0.00 | 0.02 | 0.02 | 77 | 1016.3 |
| 20260902023801 | 78 | 91 | 0.9 | 4.3 | 0.00 | 0.02 | 0.02 | 77 | 1016.2 |
| 20260902023255 | 78 | 117 | 0.9 | 2.6 | 0.00 | 0.02 | 0.02 | 76 | 1016.2 |
| 20260902022750 | 78 | 99 | 0.9 | 2.6 | 0.01 | 0.02 | 0.02 | 76 | 1016.2 |
| 20260902022243 | 78 | 98 | 0.0 | 1.7 | 0.02 | 0.02 | 0.02 | 76 | 1016.3 |
| 20260902021957 | 78 | 98 | 0.9 | 5.2 | 0.02 | 0.02 | 0.02 | 76 | 1016.3 |
| 20260902021231 | 78 | 188 | 0.9 | 5.2 | 0.02 | 0.02 | 0.02 | 75 | 1016.3 |
| 20260902020725 | 78 | 177 | 0.9 | 4.3 | 0.02 | 0.02 | 0.02 | 76 | 1016.4 |
| 20260902020220 | 78 | 88 | 0.9 | 5.2 | 0.02 | 0.02 | 0.02 | 77 | 1016.3 |
| 20260902015713 | 79 | 155 | 1.7 | 5.2 | 0.02 | 0.02 | 0.02 | 78 | 1016.1 |
| 20260902015208 | 79 | 153 | 2.6 | 5.2 | 0.02 | 0.02 | 0.02 | 78 | 1016.0 |
| 20260902015149 | 79 | 127 | 2.6 | 7.0 | 0.02 | 0.02 | 0.02 | 77 | 1016.0 |
| 20260902014155 | 78 | 109 | 1.7 | 6.1 | 0.02 | 0.02 | 0.02 | 76 | 1015.9 |
| 20260902013649 | 79 | 86 | 1.7 | 7.0 | 0.02 | 0.02 | 0.02 | 74 | 1016.1 |
| 20260902013143 | 80 | 359 | 3.5 | 11.3 | 0.02 | 0.02 | 0.02 | 73 | 1016.1 |
| 20260902012854 | 81 | 90 | 0.9 | 4.3 | 0.00 | 0.00 | 0.00 | 69 | 1016.0 |
| 20260902012732 | 81 | 63 | 3.5 | 11.3 | 0.01 | 0.01 | 0.01 | 71 | 1016.1 |
| 20260902011848 | 81 | 103 | 0.9 | 2.6 | 0.00 | 0.00 | 0.00 | 69 | 1016.0 |
| 20260902011119 | 81 | 96 | 1.7 | 5.2 | 0.00 | 0.00 | 0.00 | 69 | 1016.0 |
| 20260902010613 | 81 | 85 | 2.6 | 5.2 | 0.00 | 0.00 | 0.00 | 69 | 1016.0 |
| 20260902010107 | 81 | 77 | 2.6 | 6.1 | 0.00 | 0.00 | 0.00 | 71 | 1016.1 |
| 20260902005602 | 81 | 353 | 3.5 | 6.1 | 0.00 | 0.00 | 0.00 | 72 | 1016.1 |
| 20260902005055 | 81 | 302 | 3.5 | 7.0 | 0.00 | 0.00 | 0.00 | 75 | 1016.1 |
| 20260902004549 | 81 | 300 | 3.5 | 7.0 | 0.00 | 0.00 | 0.00 | 75 | 1016.1 |
| 20260902004044 | 81 | 276 | 3.5 | 7.0 | 0.00 | 0.00 | 0.00 | 75 | 1016.1 |
| 20260902003538 | 81 | 280 | 3.5 | 7.0 | 0.00 | 0.00 | 0.00 | 75 | 1016.0 |
| 20260902003510 | 80 | 286 | 3.5 | 7.8 | 0.00 | 0.00 | 0.00 | 76 | 1016.0 |
| 20260902002748 | 80 | 280 | 4.3 | 7.8 | 0.00 | 0.00 | 0.00 | 77 | 1016.1 |
| 20260902002028 | 81 | 293 | 3.5 | 7.0 | 0.00 | 0.00 | 0.00 | 78 | 1016.1 |
| 20260902001528 | 81 | 283 | 2.6 | 7.0 | 0.00 | 0.00 | 0.00 | 77 | 1016.0 |
| 20260902001028 | 80 | 266 | 2.6 | 6.1 | 0.00 | 0.00 | 0.00 | 77 | 1016.0 |
| 20260902000528 | 81 | 284 | 3.5 | 6.1 | 0.00 | 0.00 | 0.00 | 78 | 1016.0 |
| 20260902000028 | 80 | 284 | 3.5 | 5.2 | 0.00 | 0.00 | 0.00 | 78 | 1016.0 |
| 20260902000008 | 80 | 280 | 2.6 | 5.2 | 0.00 | 0.00 | 0.00 | 78 | 1015.9 |
| 20260901235028 | 80 | 279 | 1.7 | 5.2 | 0.00 | 0.00 | 0.00 | 76 | 1015.9 |
| 20260901234528 | 81 | 316 | 2.6 | 6.1 | 0.00 | 0.00 | 0.00 | 76 | 1015.9 |
| 20260901234028 | 80 | 283 | 3.5 | 6.1 | 0.00 | 0.00 | 0.00 | 75 | 1015.8 |
| 20260901233529 | 81 | 283 | 3.5 | 6.1 | 0.00 | 0.00 | 0.00 | 74 | 1015.8 |
| 20260901233029 | 81 | 302 | 3.5 | 5.2 | 0.00 | 0.00 | 0.00 | 73 | 1015.7 |
| 20260901232529 | 81 | 305 | 3.5 | 5.2 | 0.00 | 0.00 | 0.00 | 72 | 1015.7 |
| 20260901232028 | 81 | 278 | 3.5 | 5.2 | 0.00 | 0.00 | 0.00 | 73 | 1015.7 |
| 20260901231528 | 81 | 304 | 3.5 | 5.2 | 0.00 | 0.00 | 0.00 | 74 | 1015.7 |
| 20260901231027 | 81 | 316 | 3.5 | 5.2 | 0.00 | 0.00 | 0.00 | 74 | 1015.8 |
| 20260901230526 | 81 | 299 | 3.5 | 6.1 | 0.00 | 0.00 | 0.00 | 75 | 1015.7 |
| 20260901230026 | 81 | 297 | 3.5 | 6.1 | 0.00 | 0.00 | 0.00 | 75 | 1015.8 |
| 20260901225526 | 81 | 284 | 3.5 | 6.1 | 0.00 | 0.00 | 0.00 | 75 | 1015.8 |
| 20260901225246 | 81 | 297 | 3.5 | 7.8 | 0.00 | 0.00 | 0.00 | 76 | 1015.8 |
| 20260901224523 | 81 | 318 | 3.5 | 7.8 | 0.00 | 0.00 | 0.00 | 76 | 1015.7 |
| 20260901224024 | 81 | 307 | 3.5 | 5.2 | 0.00 | 0.00 | 0.00 | 76 | 1015.7 |
| 20260901223522 | 81 | 262 | 2.6 | 5.2 | 0.00 | 0.00 | 0.00 | 77 | 1015.6 |
| 20260901223022 | 81 | 313 | 2.6 | 5.2 | 0.00 | 0.00 | 0.00 | 77 | 1015.6 |
| 20260901222745 | 80 | 308 | 3.5 | 6.1 | 0.00 | 0.00 | 0.00 | 77 | 1015.6 |
| 20260901222021 | 81 | 304 | 2.6 | 6.1 | 0.00 | 0.00 | 0.00 | 77 | 1015.6 |
| 20260901221522 | 81 | 278 | 2.6 | 5.2 | 0.00 | 0.00 | 0.00 | 77 | 1015.6 |
| 20260901220522 | 81 | 300 | 2.6 | 4.3 | 0.00 | 0.00 | 0.00 | 76 | 1015.7 |
| 20260901220022 | 81 | 311 | 1.7 | 4.3 | 0.00 | 0.00 | 0.00 | 75 | 1015.6 |
| 20260901215521 | 81 | 308 | 0.9 | 2.6 | 0.00 | 0.00 | 0.00 | 73 | 1015.6 |
| 20260901215015 | 81 | 304 | 0.9 | 2.6 | 0.00 | 0.00 | 0.00 | 72 | 1015.7 |
| 20260901214512 | 81 | 260 | 0.9 | 1.7 | 0.00 | 0.00 | 0.00 | 72 | 1015.7 |
| 20260901214012 | 81 | 260 | 0.9 | 1.7 | 0.00 | 0.00 | 0.00 | 71 | 1015.8 |
| 20260901213512 | 82 | 259 | 0.9 | 2.6 | 0.00 | 0.00 | 0.00 | 71 | 1015.7 |
| 20260901213012 | 82 | 239 | 0.9 | 2.6 | 0.00 | 0.00 | 0.00 | 70 | 1015.7 |
| 20260901212509 | 81 | 226 | 0.0 | 1.7 | 0.00 | 0.00 | 0.00 | 71 | 1015.6 |
| 20260901212009 | 81 | 226 | 0.0 | 0.9 | 0.00 | 0.00 | 0.00 | 71 | 1015.5 |
| 20260901211509 | 81 | 226 | 0.0 | 0.9 | 0.00 | 0.00 | 0.00 | 70 | 1015.5 |
| 20260901211010 | 81 | 226 | 0.0 | 0.9 | 0.00 | 0.00 | 0.00 | 71 | 1015.5 |
| 20260901210509 | 81 | 226 | 0.0 | 0.9 | 0.00 | 0.00 | 0.00 | 71 | 1015.6 |
| 20260901210007 | 81 | 226 | 0.0 | 0.9 | 0.00 | 0.00 | 0.00 | 71 | 1015.5 |
| 20260901205502 | 81 | 226 | 0.0 | 0.0 | 0.00 | 0.00 | 0.00 | 71 | 1015.4 |
| 20260901205218 | 81 | 226 | 0.0 | 0.9 | 0.00 | 0.00 | 0.00 | 71 | 1015.4 |
| 20260901204452 | 82 | 226 | 0.0 | 2.6 | 0.00 | 0.00 | 0.00 | 71 | 1015.4 |
| 20260901204210 | 82 | 194 | 0.9 | 2.6 | 0.00 | 0.00 | 0.00 | 71 | 1015.4 |
| 20260901203452 | 82 | 186 | 0.9 | 2.6 | 0.00 | 0.00 | 0.00 | 70 | 1015.4 |
| 20260901202950 | 82 | 146 | 0.9 | 2.6 | 0.00 | 0.00 | 0.00 | 70 | 1015.3 |
| 20260901202708 | 82 | 218 | 0.9 | 2.6 | 0.00 | 0.00 | 0.00 | 70 | 1015.3 |
| 20260901202216 | 82 | 226 | 0.0 | 2.6 | 0.00 | 0.00 | 0.00 | 69 | 1015.3 |
| 20260901201450 | 82 | 163 | 0.0 | 1.7 | 0.00 | 0.00 | 0.00 | 69 | 1015.4 |
| 20260901201208 | 82 | 160 | 0.0 | 1.7 | 0.00 | 0.00 | 0.00 | 69 | 1015.3 |
| 20260901200448 | 82 | 189 | 0.9 | 3.5 | 0.00 | 0.00 | 0.00 | 69 | 1015.3 |
| 20260901195948 | 82 | 191 | 0.9 | 3.5 | 0.00 | 0.00 | 0.00 | 68 | 1015.4 |
| 20260901195448 | 82 | 219 | 0.0 | 1.7 | 0.00 | 0.00 | 0.00 | 68 | 1015.3 |
| 20260901194948 | 82 | 196 | 0.0 | 0.9 | 0.00 | 0.00 | 0.00 | 68 | 1015.3 |
| 20260901194448 | 82 | 196 | 0.9 | 2.6 | 0.00 | 0.00 | 0.00 | 68 | 1015.2 |
| 20260901194434 | 82 | 207 | 0.9 | 2.6 | 0.00 | 0.00 | 0.00 | 69 | 1015.3 |
| 20260901193446 | 82 | 213 | 0.9 | 1.7 | 0.00 | 0.00 | 0.00 | 68 | 1015.3 |
| 20260901192946 | 83 | 213 | 0.0 | 1.7 | 0.00 | 0.00 | 0.00 | 67 | 1015.3 |
| 20260901192443 | 82 | 313 | 0.0 | 0.0 | 0.00 | 0.00 | 0.00 | 65 | 1015.3 |
| 20260901192419 | 82 | 313 | 0.0 | 0.0 | 0.00 | 0.00 | 0.00 | 65 | 1015.2 |
| 20260901191440 | 83 | 313 | 0.0 | 1.7 | 0.00 | 0.00 | 0.00 | 65 | 1015.2 |
| 20260901190940 | 83 | 314 | 0.0 | 1.7 | 0.00 | 0.00 | 0.00 | 65 | 1015.2 |
| 20260901190440 | 83 | 92 | 0.9 | 2.6 | 0.00 | 0.00 | 0.00 | 65 | 1015.2 |
| 20260901190207 | 83 | 92 | 0.9 | 2.6 | 0.00 | 0.00 | 0.00 | 65 | 1015.1 |
| 20260901185930 | 83 | 85 | 0.9 | 2.6 | 0.00 | 0.00 | 0.00 | 65 | 1015.1 |
| 20260901184940 | 83 | 110 | 0.9 | 1.7 | 0.00 | 0.00 | 0.00 | 65 | 1015.1 |
| 20260901184440 | 83 | 110 | 0.0 | 1.7 | 0.00 | 0.00 | 0.00 | 66 | 1015.0 |
| 20260901183935 | 83 | 141 | 0.0 | 1.7 | 0.00 | 0.00 | 0.00 | 66 | 1014.8 |
| 20260901183923 | 83 | 150 | 0.9 | 3.5 | 0.00 | 0.00 | 0.00 | 66 | 1014.6 |
| 20260901182936 | 83 | 99 | 0.9 | 3.5 | 0.00 | 0.00 | 0.00 | 66 | 1014.5 |
| 20260901182436 | 83 | 125 | 0.0 | 1.7 | 0.00 | 0.00 | 0.00 | 66 | 1014.5 |
| 20260901182153 | 83 | 148 | 0.0 | 1.7 | 0.00 | 0.00 | 0.00 | 66 | 1014.4 |
| 20260901181436 | 83 | 168 | 0.0 | 1.7 | 0.00 | 0.00 | 0.00 | 66 | 1014.3 |
| 20260901180936 | 83 | 133 | 0.0 | 2.6 | 0.00 | 0.00 | 0.00 | 66 | 1014.2 |
| 20260901180658 | 83 | 174 | 0.9 | 2.6 | 0.00 | 0.00 | 0.00 | 66 | 1014.0 |
| 20260901180154 | 83 | 203 | 0.9 | 3.5 | 0.00 | 0.00 | 0.00 | 65 | 1014.0 |
| 20260901175436 | 83 | 201 | 0.9 | 5.2 | 0.00 | 0.00 | 0.00 | 65 | 1013.9 |
| 20260901174935 | 83 | 213 | 0.9 | 5.2 | 0.00 | 0.00 | 0.00 | 65 | 1013.8 |
| 20260901174705 | 83 | 248 | 0.9 | 4.3 | 0.00 | 0.00 | 0.00 | 64 | 1013.8 |
| 20260901173932 | 83 | 172 | 1.7 | 5.2 | 0.00 | 0.00 | 0.00 | 64 | 1013.8 |
| 20260901173432 | 83 | 159 | 1.7 | 7.8 | 0.00 | 0.00 | 0.00 | 64 | 1013.6 |
| 20260901172933 | 84 | 121 | 2.6 | 7.8 | 0.00 | 0.00 | 0.00 | 64 | 1013.7 |
| 20260901172429 | 84 | 131 | 3.5 | 7.0 | 0.00 | 0.00 | 0.00 | 63 | 1013.6 |
| 20260901171930 | 84 | 127 | 3.5 | 7.8 | 0.00 | 0.00 | 0.00 | 63 | 1013.7 |
| 20260901171647 | 84 | 123 | 2.6 | 7.8 | 0.00 | 0.00 | 0.00 | 62 | 1013.8 |
| 20260901170927 | 84 | 149 | 2.6 | 7.8 | 0.00 | 0.00 | 0.00 | 62 | 1013.8 |
| 20260901170427 | 84 | 148 | 2.6 | 7.8 | 0.00 | 0.00 | 0.00 | 62 | 1013.8 |
| 20260901165927 | 84 | 236 | 3.5 | 7.0 | 0.00 | 0.00 | 0.00 | 62 | 1013.8 |
| 20260901165429 | 85 | 153 | 3.5 | 6.1 | 0.00 | 0.00 | 0.00 | 61 | 1013.9 |
| 20260901164928 | 85 | 120 | 3.5 | 11.3 | 0.00 | 0.00 | 0.00 | 60 | 1013.9 |
| 20260901164427 | 85 | 137 | 3.5 | 11.3 | 0.00 | 0.00 | 0.00 | 60 | 1013.8 |
| 20260901163928 | 85 | 225 | 4.3 | 10.4 | 0.00 | 0.00 | 0.00 | 60 | 1013.8 |
| 20260901163641 | 86 | 148 | 3.5 | 7.8 | 0.00 | 0.00 | 0.00 | 60 | 1013.7 |
| 20260901163143 | 86 | 151 | 2.6 | 7.8 | 0.00 | 0.00 | 0.00 | 60 | 1013.8 |
| 20260901162410 | 86 | 184 | 3.5 | 7.8 | 0.00 | 0.00 | 0.00 | 61 | 1013.7 |
| 20260901162350 | 87 | 172 | 3.5 | 7.8 | 0.00 | 0.00 | 0.00 | 61 | 1013.7 |
| 20260901161357 | 87 | 154 | 2.6 | 7.0 | 0.00 | 0.00 | 0.00 | 61 | 1013.7 |
| 20260901161107 | 87 | 209 | 2.6 | 7.8 | 0.00 | 0.00 | 0.00 | 60 | 1013.7 |
| 20260901160349 | 88 | 194 | 2.6 | 7.8 | 0.00 | 0.00 | 0.00 | 61 | 1013.5 |
| 20260901155834 | 88 | 184 | 2.6 | 7.8 | 0.00 | 0.00 | 0.00 | 60 | 1013.4 |
| 20260901155545 | 88 | 210 | 3.5 | 7.8 | 0.00 | 0.00 | 0.00 | 59 | 1013.4 |
| 20260901154822 | 88 | 160 | 4.3 | 7.8 | 0.00 | 0.00 | 0.00 | 58 | 1013.4 |
| 20260901154316 | 88 | 184 | 4.3 | 7.8 | 0.00 | 0.00 | 0.00 | 58 | 1013.4 |
| 20260901153810 | 88 | 197 | 4.3 | 8.7 | 0.00 | 0.00 | 0.00 | 57 | 1013.4 |
| 20260901153304 | 88 | 212 | 5.2 | 9.6 | 0.00 | 0.00 | 0.00 | 56 | 1013.4 |
| 20260901153022 | 89 | 165 | 4.3 | 9.6 | 0.00 | 0.00 | 0.00 | 54 | 1013.5 |
| 20260901152253 | 89 | 207 | 5.2 | 8.7 | 0.00 | 0.00 | 0.00 | 54 | 1013.5 |
| 20260901152006 | 89 | 176 | 4.3 | 8.7 | 0.00 | 0.00 | 0.00 | 53 | 1013.6 |
| 20260901151241 | 89 | 230 | 4.3 | 7.8 | 0.00 | 0.00 | 0.00 | 53 | 1013.5 |
| 20260901150735 | 89 | 94 | 4.3 | 8.7 | 0.00 | 0.00 | 0.00 | 53 | 1013.5 |
| 20260901150228 | 89 | 168 | 3.5 | 8.7 | 0.00 | 0.00 | 0.00 | 53 | 1013.5 |
| 20260901150205 | 90 | 228 | 3.5 | 7.0 | 0.00 | 0.00 | 0.00 | 52 | 1013.5 |
| 20260901145217 | 90 | 205 | 3.5 | 7.8 | 0.00 | 0.00 | 0.00 | 52 | 1013.5 |
| 20260901144711 | 90 | 211 | 3.5 | 7.8 | 0.00 | 0.00 | 0.00 | 52 | 1013.5 |
| 20260901144421 | 90 | 213 | 3.5 | 8.7 | 0.00 | 0.00 | 0.00 | 52 | 1013.4 |
| 20260901143659 | 90 | 212 | 4.3 | 9.6 | 0.00 | 0.00 | 0.00 | 51 | 1013.5 |
| 20260901143152 | 91 | 259 | 2.6 | 9.6 | 0.00 | 0.00 | 0.00 | 50 | 1013.5 |
| 20260901142646 | 91 | 172 | 2.6 | 6.1 | 0.00 | 0.00 | 0.00 | 49 | 1013.5 |
| 20260901142141 | 91 | 194 | 2.6 | 8.7 | 0.00 | 0.00 | 0.00 | 51 | 1013.5 |
| 20260901142127 | 91 | 169 | 3.5 | 8.7 | 0.00 | 0.00 | 0.00 | 50 | 1013.5 |
| 20260901141129 | 90 | 162 | 4.3 | 8.7 | 0.00 | 0.00 | 0.00 | 51 | 1013.5 |
| 20260901140627 | 90 | 250 | 5.2 | 10.4 | 0.00 | 0.00 | 0.00 | 51 | 1013.6 |
| 20260901140127 | 90 | 105 | 5.2 | 10.4 | 0.00 | 0.00 | 0.00 | 50 | 1013.6 |
| 20260901135627 | 90 | 182 | 5.2 | 9.6 | 0.00 | 0.00 | 0.00 | 51 | 1013.5 |
| 20260901135133 | 91 | 248 | 4.3 | 9.6 | 0.00 | 0.00 | 0.00 | 49 | 1013.6 |
| 20260901134627 | 91 | 213 | 3.5 | 8.7 | 0.00 | 0.00 | 0.00 | 48 | 1013.6 |
| 20260901134127 | 91 | 240 | 3.5 | 7.8 | 0.00 | 0.00 | 0.00 | 48 | 1013.6 |
| 20260901133627 | 91 | 79 | 3.5 | 7.8 | 0.00 | 0.00 | 0.00 | 48 | 1013.7 |
| 20260901133127 | 91 | 172 | 3.5 | 7.8 | 0.00 | 0.00 | 0.00 | 49 | 1013.8 |
| 20260901133109 | 91 | 250 | 3.5 | 11.3 | 0.00 | 0.00 | 0.00 | 50 | 1013.8 |
| 20260901132127 | 91 | 214 | 2.6 | 11.3 | 0.00 | 0.00 | 0.00 | 53 | 1013.8 |
| 20260901131627 | 91 | 183 | 2.6 | 7.0 | 0.00 | 0.00 | 0.00 | 53 | 1013.9 |
| 20260901131351 | 90 | 203 | 3.5 | 8.7 | 0.00 | 0.00 | 0.00 | 51 | 1013.9 |
| 20260901130625 | 90 | 275 | 3.5 | 8.7 | 0.00 | 0.00 | 0.00 | 51 | 1013.9 |
| 20260901130125 | 90 | 233 | 2.6 | 7.8 | 0.00 | 0.00 | 0.00 | 50 | 1014.0 |
| 20260901125627 | 91 | 202 | 2.6 | 7.0 | 0.00 | 0.00 | 0.00 | 50 | 1014.1 |
| 20260901125127 | 91 | 172 | 1.7 | 6.1 | 0.00 | 0.00 | 0.00 | 51 | 1014.1 |
| 20260901124626 | 90 | 217 | 1.7 | 6.1 | 0.00 | 0.00 | 0.00 | 52 | 1014.1 |
| 20260901124125 | 90 | 224 | 2.6 | 7.0 | 0.00 | 0.00 | 0.00 | 53 | 1014.1 |